Starlink 3638

operational
NORAD ID: 51786 Int'l Des: 2022-017 Owner: SPXS Country: US Constellation: starlink
LEOCIRCULAR

Starlink 3638について

説明を読み込み中...

リアルタイム位置

3D地球を読み込み中...

次回通過

高度履歴

Altitude vs Time

uPlot chart will show altitude changes over time

軌道要素

1 51786U 22017U 25308.66172071 -.00000594 00000-0 -19249-4 0 9996
2 51786 53.2194 190.3941 0001348 85.4811 274.6335 15.08834151203408
Epoch: Nov 4, 2025 • Age: 14 hours

現在のステータス

高度 540.7 km
速度 7.60 km/s
衛星直下点 28.76°N, 71.76°E
打ち上げ日 Feb 25, 2022
運用期間 3.6 years
タイプ internet

技術仕様

分類 Payload
質量 297.00 kg
乾燥質量 275.00 kg
総質量 297.00 kg
長さ 0.20 m
直径 2.80 m
スパン 9.00 m
形状 Box + pan
製造者 SPXS
バスタイプ Starlink
フェーズステータス In Orbit
所有者/国 SPXS/US

大規模コンステレーション

Loading constellations...